Time,TemperatureF,DewpointF,PressureIn,WindDirection,WindDirectionDegrees,WindSpeedMPH,WindSpeedGustMPH,Humidity,HourlyPrecipIn,Conditions,Clouds,dailyrainin,SolarRadiationWatts/m^2,SoftwareType,DateUTC
2014-01-01 00:00:00,23.2,16.4,30.25,NW,314,1.0,3.0,75,0.00,FEW,,0.00,0.0,WeatherDisplay:10.37,2014-01-01 05:00:00,
2014-01-01 00:10:00,23.4,16.6,30.26,WNW,284,2.0,5.0,75,0.00,FEW,,0.00,0.0,WeatherDisplay:10.37,2014-01-01 05:10:00,
2014-01-01 00:20:00,23.6,16.6,30.27,WSW,258,1.0,5.0,74,0.00,FEW,,0.00,0.0,WeatherDisplay:10.37,2014-01-01 05:20:00,
2014-01-01 00:30:00,23.6,16.5,30.27,WSW,254,2.0,4.0,74,0.00,FEW,,0.00,0.0,WeatherDisplay:10.37,2014-01-01 05:30:00,
2014-01-01 00:40:00,23.6,16.2,30.27,West,272,0.0,4.0,73,0.00,FEW,,0.00,0.0,WeatherDisplay:10.37,2014-01-01 05:40:00,
2014-01-01 00:50:00,23.7,15.3,30.27,West,269,1.0,8.0,70,0.00,FEW,,0.00,0.0,WeatherDisplay:10.37,2014-01-01 05:50:00,
2014-01-01 01:00:00,23.9,14.2,30.27,WSW,255,1.0,8.0,66,0.00,FEW,,0.00,0.0,WeatherDisplay:10.37,2014-01-01 06:00:00,
2014-01-01 01:10:00,23.9,13.1,30.28,West,262,1.0,7.0,63,0.00,CLR,,0.00,0.0,WeatherDisplay:10.37,2014-01-01 06:10:00,
2014-01-01 01:20:00,23.8,13.0,30.28,WSW,258,1.0,7.0,63,0.00,CLR,,0.00,0.0,WeatherDisplay:10.37,2014-01-01 06:20:00,
2014-01-01 01:30:00,23.6,12.9,30.29,West,274,1.0,6.0,63,0.00,CLR,,0.00,0.0,WeatherDisplay:10.37,2014-01-01 06:30:00,
2014-01-01 01:40:00,23.4,12.3,30.29,WNW,283,2.0,4.0,62,0.00,CLR,,0.00,0.0,WeatherDisplay:10.37,2014-01-01 06:40:00,
2014-01-01 01:50:00,23.3,11.5,30.30,WNW,289,1.0,5.0,60,0.00,CLR,,0.00,0.0,WeatherDisplay:10.37,2014-01-01 06:50:00,
2014-01-01 02:02:00,23.2,11.0,30.30,WSW,246,1.0,7.0,59,0.00,CLR,,0.00,0.0,WeatherDisplay:10.37,2014-01-01 07:02:00,
2014-01-01 02:10:00,23.1,10.5,30.31,WSW,245,2.0,6.0,58,0.00,CLR,,0.00,0.0,WeatherDisplay:10.37,2014-01-01 07:10:00,
2014-01-01 02:20:00,23.0,10.8,30.32,SW,230,1.0,5.0,59,0.00,CLR,,0.00,0.0,WeatherDisplay:10.37,2014-01-01 07:20:00,
2014-01-01 02:30:00,22.8,9.8,30.32,WSW,245,3.0,7.0,57,0.00,CLR,,0.00,0.0,WeatherDisplay:10.37,2014-01-01 07:30:00,
2014-01-01 02:40:00,22.6,10.0,30.33,West,281,2.0,6.0,58,0.00,CLR,,0.00,0.0,WeatherDisplay:10.37,2014-01-01 07:40:00,
2014-01-01 02:50:00,22.5,9.5,30.33,SW,226,1.0,8.0,57,0.00,CLR,,0.00,0.0,WeatherDisplay:10.37,2014-01-01 07:50:00,
2014-01-01 03:03:00,22.2,10.4,30.33,SSW,209,1.0,4.0,60,0.00,CLR,,0.00,0.0,WeatherDisplay:10.37,2014-01-01 08:03:00,
2014-01-01 03:10:00,21.8,10.8,30.33,SSW,194,1.0,4.0,62,0.00,CLR,,0.00,0.0,WeatherDisplay:10.37,2014-01-01 08:10:00,
2014-01-01 03:20:00,21.7,10.7,30.33,SW,220,0.0,4.0,62,0.00,CLR,,0.00,0.0,WeatherDisplay:10.37,2014-01-01 08:20:00,
2014-01-01 03:30:00,21.4,10.4,30.33,SW,219,1.0,6.0,62,0.00,CLR,,0.00,0.0,WeatherDisplay:10.37,2014-01-01 08:30:00,
2014-01-01 03:40:00,21.5,9.7,30.34,SSW,211,1.0,12.0,60,0.00,CLR,,0.00,0.0,WeatherDisplay:10.37,2014-01-01 08:40:00,
2014-01-01 03:50:00,21.4,8.9,30.34,SW,223,1.0,5.0,58,0.00,CLR,,0.00,0.0,WeatherDisplay:10.37,2014-01-01 08:50:00,
2014-01-01 04:00:00,21.4,8.5,30.35,SW,227,1.0,6.0,57,0.00,CLR,,0.00,0.0,WeatherDisplay:10.37,2014-01-01 09:00:00,
2014-01-01 04:10:00,21.4,8.1,30.35,WSW,241,2.0,7.0,56,0.00,CLR,,0.00,0.0,WeatherDisplay:10.37,2014-01-01 09:10:00,
2014-01-01 04:20:00,21.4,8.1,30.35,WSW,242,2.0,7.0,56,0.00,CLR,,0.00,0.0,WeatherDisplay:10.37,2014-01-01 09:20:00,
2014-01-01 04:30:00,21.6,7.9,30.36,WSW,254,2.0,10.0,55,0.00,CLR,,0.00,0.0,WeatherDisplay:10.37,2014-01-01 09:30:00,
2014-01-01 04:40:00,21.7,8.0,30.36,West,268,3.0,7.0,55,0.00,CLR,,0.00,0.0,WeatherDisplay:10.37,2014-01-01 09:40:00,
2014-01-01 04:50:00,22.0,8.7,30.36,WNW,296,2.0,8.0,56,0.00,CLR,,0.00,0.0,WeatherDisplay:10.37,2014-01-01 09:50:00,
2014-01-01 05:00:00,21.8,8.1,30.36,WNW,286,2.0,5.0,55,0.00,CLR,,0.00,0.0,WeatherDisplay:10.37,2014-01-01 10:00:00,
2014-01-01 05:10:00,21.7,8.4,30.37,WNW,291,1.0,7.0,56,0.00,CLR,,0.00,0.0,WeatherDisplay:10.37,2014-01-01 10:10:00,
2014-01-01 05:20:00,21.6,8.3,30.37,West,269,1.0,7.0,56,0.00,CLR,,0.00,0.0,WeatherDisplay:10.37,2014-01-01 10:20:00,
2014-01-01 05:30:00,21.3,8.4,30.38,WSW,244,1.0,4.0,57,0.00,CLR,,0.00,0.0,WeatherDisplay:10.37,2014-01-01 10:30:00,
2014-01-01 05:40:00,21.0,8.5,30.38,WSW,255,0.0,2.0,58,0.00,CLR,,0.00,0.0,WeatherDisplay:10.37,2014-01-01 10:40:00,
2014-01-01 05:50:00,20.4,8.7,30.38,SW,235,0.0,2.0,60,0.00,CLR,,0.00,0.0,WeatherDisplay:10.37,2014-01-01 10:50:00,
2014-01-01 06:00:00,19.7,8.0,30.38,SW,234,0.0,2.0,60,0.00,CLR,,0.00,0.0,WeatherDisplay:10.37,2014-01-01 11:00:00,
2014-01-01 06:10:00,19.4,8.5,30.39,SW,229,0.0,2.0,62,0.00,CLR,,0.00,0.0,WeatherDisplay:10.37,2014-01-01 11:10:00,
2014-01-01 06:20:00,18.7,8.6,30.39,SW,229,0.0,0.0,64,0.00,CLR,,0.00,0.0,WeatherDisplay:10.37,2014-01-01 11:20:00,
2014-01-01 06:30:00,18.3,8.1,30.40,SW,229,0.0,0.0,64,0.00,CLR,,0.00,0.0,WeatherDisplay:10.37,2014-01-01 11:30:00,
2014-01-01 06:40:00,17.9,8.5,30.40,SW,229,0.0,0.0,66,0.00,CLR,,0.00,0.0,WeatherDisplay:10.37,2014-01-01 11:40:00,
2014-01-01 06:50:00,17.6,9.2,30.40,SW,229,0.0,0.0,69,0.00,CLR,,0.00,0.0,WeatherDisplay:10.37,2014-01-01 11:50:00,
2014-01-01 07:00:00,17.1,8.7,30.41,SW,229,0.0,0.0,69,0.00,CLR,,0.00,0.0,WeatherDisplay:10.37,2014-01-01 12:00:00,
2014-01-01 07:10:00,16.9,8.8,30.41,SW,229,0.0,0.0,70,0.00,CLR,,0.00,0.0,WeatherDisplay:10.37,2014-01-01 12:10:00,
2014-01-01 07:20:00,16.6,8.8,30.41,SW,229,0.0,0.0,71,0.00,CLR,,0.00,0.0,WeatherDisplay:10.37,2014-01-01 12:20:00,
2014-01-01 07:30:00,16.6,9.4,30.41,SW,223,0.0,0.0,73,0.00,CLR,,0.00,0.0,WeatherDisplay:10.37,2014-01-01 12:30:00,
2014-01-01 07:40:00,16.3,9.2,30.41,SW,217,0.0,0.0,73,0.00,CLR,,0.00,0.0,WeatherDisplay:10.37,2014-01-01 12:40:00,
2014-01-01 07:50:00,16.5,9.7,30.41,SW,217,0.0,0.0,74,0.00,CLR,,0.00,0.0,WeatherDisplay:10.37,2014-01-01 12:50:00,
2014-01-01 08:00:00,16.8,10.0,30.43,SW,217,0.0,0.0,74,0.00,CLR,,0.00,0.0,WeatherDisplay:10.37,2014-01-01 13:00:00,
2014-01-01 08:10:00,17.4,10.6,30.43,SW,217,0.0,0.0,74,0.00,CLR,,0.00,0.0,WeatherDisplay:10.37,2014-01-01 13:10:00,
2014-01-01 08:20:00,18.1,11.2,30.43,SW,217,0.0,0.0,74,0.00,CLR,,0.00,0.0,WeatherDisplay:10.37,2014-01-01 13:20:00,
2014-01-01 08:30:00,18.6,11.4,30.43,SW,217,0.0,0.0,73,0.00,CLR,,0.00,0.0,WeatherDisplay:10.37,2014-01-01 13:30:00,
2014-01-01 08:40:00,19.1,11.2,30.43,SSW,212,0.0,2.0,71,0.00,CLR,,0.00,0.0,WeatherDisplay:10.37,2014-01-01 13:40:00,
2014-01-01 08:50:00,19.5,11.0,30.44,SSW,205,0.0,0.0,69,0.00,CLR,,0.00,0.0,WeatherDisplay:10.37,2014-01-01 13:50:00,
2014-01-01 09:00:00,20.3,11.5,30.44,SSW,205,0.0,1.0,68,0.00,CLR,,0.00,0.0,WeatherDisplay:10.37,2014-01-01 14:00:00,
2014-01-01 09:10:00,21.3,11.7,30.44,SSW,206,0.0,1.0,66,0.00,CLR,,0.00,0.0,WeatherDisplay:10.37,2014-01-01 14:10:00,
2014-01-01 09:20:00,22.7,12.0,30.44,SW,222,1.0,4.0,63,0.00,CLR,,0.00,0.0,WeatherDisplay:10.37,2014-01-01 14:20:00,
2014-01-01 09:30:00,23.9,11.6,30.44,West,265,2.0,8.0,59,0.00,CLR,,0.00,0.0,WeatherDisplay:10.37,2014-01-01 14:30:00,
2014-01-01 09:40:00,24.7,11.2,30.44,SSW,212,2.0,7.0,56,0.00,CLR,,0.00,0.0,WeatherDisplay:10.37,2014-01-01 14:40:00,
2014-01-01 09:50:00,25.1,10.7,30.45,WSW,256,2.0,9.0,54,0.00,CLR,,0.00,0.0,WeatherDisplay:10.37,2014-01-01 14:50:00,
2014-01-01 10:00:00,25.2,10.1,30.45,West,267,3.0,10.0,52,0.00,CLR,,0.00,0.0,WeatherDisplay:10.37,2014-01-01 15:00:00,
2014-01-01 10:20:00,26.0,10.3,30.45,West,279,1.0,7.0,51,0.00,CLR,,0.00,0.0,WeatherDisplay:10.37,2014-01-01 15:20:00,
2014-01-01 10:30:00,26.1,9.5,30.44,WSW,254,6.0,12.0,49,0.00,CLR,,0.00,0.0,WeatherDisplay:10.37,2014-01-01 15:30:00,
2014-01-01 10:40:00,26.2,10.1,30.44,West,272,5.0,12.0,50,0.00,CLR,,0.00,0.0,WeatherDisplay:10.37,2014-01-01 15:40:00,
2014-01-01 10:50:00,26.4,10.2,30.42,WSW,254,6.0,12.0,50,0.00,CLR,,0.00,0.0,WeatherDisplay:10.37,2014-01-01 15:50:00,
2014-01-01 11:00:00,26.7,10.5,30.42,WSW,242,2.0,8.0,50,0.00,CLR,,0.00,0.0,WeatherDisplay:10.37,2014-01-01 16:00:00,
2014-01-01 11:20:00,27.5,10.3,30.41,SW,224,5.0,10.0,48,0.00,CLR,,0.00,0.0,WeatherDisplay:10.37,2014-01-01 16:20:00,
2014-01-01 11:30:00,26.9,9.8,30.41,WNW,285,2.0,12.0,48,0.00,CLR,,0.00,0.0,WeatherDisplay:10.37,2014-01-01 16:30:00,
2014-01-01 11:40:00,27.4,10.7,30.41,SW,222,2.0,12.0,49,0.00,CLR,,0.00,0.0,WeatherDisplay:10.37,2014-01-01 16:40:00,
2014-01-01 11:50:00,27.8,11.1,30.41,SW,225,2.0,8.0,49,0.00,CLR,,0.00,0.0,WeatherDisplay:10.37,2014-01-01 16:50:00,
2014-01-01 12:00:00,27.9,10.8,30.40,WSW,255,2.0,9.0,48,0.00,FEW,,0.00,0.0,WeatherDisplay:10.37,2014-01-01 17:00:00,
2014-01-01 12:20:00,27.8,10.2,30.40,WNW,284,3.0,12.0,47,0.00,FEW,,0.00,0.0,WeatherDisplay:10.37,2014-01-01 17:20:00,
2014-01-01 12:30:00,28.5,10.8,30.39,SW,235,2.0,7.0,47,0.00,FEW,,0.00,0.0,WeatherDisplay:10.37,2014-01-01 17:30:00,
2014-01-01 12:40:00,28.7,11.0,30.39,WSW,241,1.0,7.0,47,0.00,FEW,,0.00,0.0,WeatherDisplay:10.37,2014-01-01 17:40:00,
2014-01-01 12:50:00,28.8,10.6,30.40,SW,215,2.0,9.0,46,0.00,FEW,,0.00,0.0,WeatherDisplay:10.37,2014-01-01 17:50:00,
2014-01-01 13:00:00,28.6,11.4,30.39,WSW,247,1.0,6.0,48,0.00,CLR,,0.00,0.0,WeatherDisplay:10.37,2014-01-01 18:00:00,
2014-01-01 13:20:00,28.8,9.6,30.39,WSW,256,3.0,9.0,44,0.00,CLR,,0.00,0.0,WeatherDisplay:10.37,2014-01-01 18:20:00,
2014-01-01 13:30:00,29.0,10.8,30.39,West,269,2.0,6.0,46,0.00,CLR,,0.00,0.0,WeatherDisplay:10.37,2014-01-01 18:30:00,
2014-01-01 13:40:00,29.1,10.9,30.40,West,262,3.0,7.0,46,0.00,CLR,,0.00,0.0,WeatherDisplay:10.37,2014-01-01 18:40:00,
2014-01-01 13:50:00,29.1,10.4,30.40,West,279,2.0,5.0,45,0.00,CLR,,0.00,0.0,WeatherDisplay:10.37,2014-01-01 18:50:00,
2014-01-01 14:00:00,28.9,10.2,30.40,West,263,2.0,7.0,45,0.00,CLR,,0.00,0.0,WeatherDisplay:10.37,2014-01-01 19:00:00,
2014-01-01 14:20:00,28.7,10.5,30.40,West,262,1.0,7.0,46,0.00,CLR,,0.00,0.0,WeatherDisplay:10.37,2014-01-01 19:20:00,
2014-01-01 14:30:00,28.9,10.7,30.40,WSW,254,2.0,7.0,46,0.00,CLR,,0.00,0.0,WeatherDisplay:10.37,2014-01-01 19:30:00,
2014-01-01 14:40:00,28.8,10.6,30.40,WSW,252,2.0,5.0,46,0.00,CLR,,0.00,0.0,WeatherDisplay:10.37,2014-01-01 19:40:00,
2014-01-01 14:50:00,28.8,10.6,30.39,West,263,1.0,7.0,46,0.00,CLR,,0.00,0.0,WeatherDisplay:10.37,2014-01-01 19:50:00,
2014-01-01 15:00:00,28.8,10.6,30.39,WNW,285,0.0,5.0,46,0.00,CLR,,0.00,0.0,WeatherDisplay:10.37,2014-01-01 20:00:00,
2014-01-01 15:20:00,28.8,11.1,30.40,NW,319,0.0,5.0,47,0.00,CLR,,0.00,0.0,WeatherDisplay:10.37,2014-01-01 20:20:00,
2014-01-01 15:30:00,28.6,10.9,30.40,SW,226,1.0,4.0,47,0.00,CLR,,0.00,0.0,WeatherDisplay:10.37,2014-01-01 20:30:00,
2014-01-01 15:40:00,28.7,11.0,30.40,SSW,207,0.0,3.0,47,0.00,CLR,,0.00,0.0,WeatherDisplay:10.37,2014-01-01 20:40:00,
2014-01-01 15:50:00,28.4,10.7,30.40,WSW,249,1.0,4.0,47,0.00,CLR,,0.00,0.0,WeatherDisplay:10.37,2014-01-01 20:50:00,
2014-01-01 16:00:00,28.2,11.0,30.40,NW,306,0.0,3.0,48,0.00,CLR,,0.00,0.0,WeatherDisplay:10.37,2014-01-01 21:00:00,
2014-01-01 16:31:00,26.9,10.3,30.41,SW,232,0.0,1.0,49,0.00,CLR,,0.00,0.0,WeatherDisplay:10.37,2014-01-01 21:31:00,
2014-01-01 16:40:00,26.3,10.6,30.41,SW,232,0.0,0.0,51,0.00,CLR,,0.00,0.0,WeatherDisplay:10.37,2014-01-01 21:40:00,
2014-01-01 16:50:00,25.7,10.5,30.41,SW,232,0.0,0.0,52,0.00,CLR,,0.00,0.0,WeatherDisplay:10.37,2014-01-01 21:50:00,
2014-01-01 17:00:00,25.0,11.1,30.40,SW,232,0.0,0.0,55,0.00,CLR,,0.00,0.0,WeatherDisplay:10.37,2014-01-01 22:00:00,
2014-01-01 17:20:00,24.5,12.2,30.41,SW,232,0.0,0.0,59,0.00,CLR,,0.00,0.0,WeatherDisplay:10.37,2014-01-01 22:20:00,
2014-01-01 17:30:00,24.4,11.7,30.41,SW,232,0.0,0.0,58,0.00,CLR,,0.00,0.0,WeatherDisplay:10.37,2014-01-01 22:30:00,
2014-01-01 17:40:00,24.2,12.3,30.41,SW,232,0.0,0.0,60,0.00,CLR,,0.00,0.0,WeatherDisplay:10.37,2014-01-01 22:40:00,
2014-01-01 17:50:00,23.7,12.6,30.41,SW,232,0.0,0.0,62,0.00,CLR,,0.00,0.0,WeatherDisplay:10.37,2014-01-01 22:50:00,
2014-01-01 18:00:00,23.2,12.8,30.41,SW,232,0.0,0.0,64,0.00,SCT,,0.00,0.0,WeatherDisplay:10.37,2014-01-01 23:00:00,
2014-01-01 18:30:00,22.3,13.7,30.42,SW,232,0.0,1.0,69,0.00,SCT,,0.00,0.0,WeatherDisplay:10.37,2014-01-01 23:30:00,
2014-01-01 18:40:00,21.9,13.6,30.42,SW,232,0.0,0.0,70,0.00,SCT,,0.00,0.0,WeatherDisplay:10.37,2014-01-01 23:40:00,
2014-01-01 18:50:00,21.5,13.5,30.42,SW,232,0.0,0.0,71,0.00,SCT,,0.00,0.0,WeatherDisplay:10.37,2014-01-01 23:50:00,
2014-01-01 19:00:00,21.4,13.8,30.43,SW,232,0.0,0.0,72,0.00,SCT,,0.00,0.0,WeatherDisplay:10.37,2014-01-02 00:00:00,
2014-01-01 19:30:00,21.5,14.2,30.43,SW,232,0.0,0.0,73,0.00,OVC,,0.00,0.0,WeatherDisplay:10.37,2014-01-02 00:30:00,
2014-01-01 19:40:00,21.3,14.0,30.43,SW,232,0.0,0.0,73,0.00,OVC,,0.00,0.0,WeatherDisplay:10.37,2014-01-02 00:40:00,
2014-01-01 19:50:00,21.5,14.5,30.43,SW,232,0.0,0.0,74,0.00,OVC,,0.00,0.0,WeatherDisplay:10.37,2014-01-02 00:50:00,
2014-01-01 20:00:00,21.9,14.9,30.43,SW,232,0.0,0.0,74,0.00,OVC,,0.00,0.0,WeatherDisplay:10.37,2014-01-02 01:00:00,
2014-01-01 20:30:00,21.8,15.4,30.43,SW,232,0.0,0.0,76,0.00,OVC,,0.00,0.0,WeatherDisplay:10.37,2014-01-02 01:30:00,
2014-01-01 20:40:00,22.0,15.6,30.43,SW,232,0.0,0.0,76,0.00,OVC,,0.00,0.0,WeatherDisplay:10.37,2014-01-02 01:40:00,
2014-01-01 20:50:00,22.2,15.8,30.43,SW,232,0.0,0.0,76,0.00,OVC,,0.00,0.0,WeatherDisplay:10.37,2014-01-02 01:50:00,
2014-01-01 21:00:00,22.1,15.7,30.43,SW,232,0.0,0.0,76,0.00,OVC,,0.00,0.0,WeatherDisplay:10.37,2014-01-02 02:00:00,
2014-01-01 21:30:00,22.2,16.1,30.44,SW,232,0.0,1.0,77,0.00,OVC,,0.00,0.0,WeatherDisplay:10.37,2014-01-02 02:30:00,
2014-01-01 21:40:00,22.2,16.3,30.43,SW,232,0.0,1.0,78,0.00,OVC,,0.00,0.0,WeatherDisplay:10.37,2014-01-02 02:40:00,
2014-01-01 21:50:00,22.3,16.8,30.43,SW,232,0.0,0.0,79,0.00,OVC,,0.00,0.0,WeatherDisplay:10.37,2014-01-02 02:50:00,
2014-01-01 22:00:00,22.4,17.2,30.43,SW,232,0.0,0.0,80,0.00,OVC,,0.00,0.0,WeatherDisplay:10.37,2014-01-02 03:00:00,
2014-01-01 22:30:00,22.7,17.7,30.44,SW,232,0.0,1.0,81,0.00,OVC,,0.00,0.0,WeatherDisplay:10.37,2014-01-02 03:30:00,
2014-01-01 22:40:00,22.7,17.1,30.43,SW,232,0.0,1.0,79,0.00,OVC,,0.00,0.0,WeatherDisplay:10.37,2014-01-02 03:40:00,
2014-01-01 22:50:00,23.1,18.4,30.43,WSW,246,0.0,1.0,82,0.00,OVC,,0.00,0.0,WeatherDisplay:10.37,2014-01-02 03:50:00,
2014-01-01 23:00:00,23.1,18.1,30.43,West,268,0.0,1.0,81,0.00,OVC,,0.00,0.0,WeatherDisplay:10.37,2014-01-02 04:00:00,
2014-01-01 23:10:00,23.2,17.7,30.43,West,269,0.0,1.0,79,0.00,OVC,,0.00,0.0,WeatherDisplay:10.37,2014-01-02 04:10:00,
2014-01-01 23:20:00,23.4,16.9,30.43,West,269,0.0,1.0,76,0.00,OVC,,0.00,0.0,WeatherDisplay:10.37,2014-01-02 04:20:00,
2014-01-01 23:30:00,23.7,16.3,30.42,WNW,290,0.0,1.0,73,0.00,OVC,,0.00,0.0,WeatherDisplay:10.37,2014-01-02 04:30:00,
2014-01-01 23:40:00,23.9,15.9,30.42,North,349,0.0,1.0,71,0.00,OVC,,0.00,0.0,WeatherDisplay:10.37,2014-01-02 04:40:00,
2014-01-01 23:50:00,24.0,15.3,30.41,NNW,346,0.0,1.0,69,0.00,OVC,,0.00,0.0,WeatherDisplay:10.37,2014-01-02 04:50:00,